Regional Weather Roundup
Issued by NWS

Home | Current Version | Previous Version | Text Only | Print | Product List | Glossary On
Versions: 1 2 3 4 5 6 7 8 9 10 11 12 13 14 15 16 17 18 19 20 21 22 23 24 25 26 27 28 29 30 31 32 33 34 35 36 37 38 39 40 41 42 43 44 45 46 47 48 49 50
000
ASUS44 KOUN 272010
RWROK

WEATHER ROUNDUP FOR OKLAHOMA
NATIONAL WEATHER SERVICE NORMAN OK
300 PM CDT MON APR 27 2015

NOTE: "FAIR" INDICATES FEW OR NO CLOUDS BELOW 12,000 FEET WITH NO
      SIGNIFICANT WEATHER AND/OR OBSTRUCTIONS TO VISIBILITY.

OKZ001>007-009>012-014-015-017-272100-
NORTHWEST OKLAHOMA AND THE PANHANDLE

CITY           SKY/WX    TMP DP  RH WIND       PRES   REMARKS
GAGE           HVY RAIN  45  43  93 NE20G28   30.00R FOG
GUYMON         RAIN      43  40  89 N20G29    30.09R FOG
ENID/WOODRING  RAIN      50  46  87 N17       29.96S
$$

OKZ016-021>023-033>039-044-045-272100-
SOUTHWEST OKLAHOMA

CITY           SKY/WX    TMP DP  RH WIND       PRES   REMARKS
LAWTON/REGL    CLOUDY    56  53  90 NE17      29.83R
LAWTON/FT SILL CLOUDY    53  53 100 NE16G24   29.81F
FREDERICK      CLOUDY    58  55  90 E18G25    29.79R
CLINTON        CLOUDY    49  46  90 NE22G31   29.92R
HOBART         CLOUDY    55  51  86 E20G26    29.87R
ALTUS AFB      LGT RAIN  55  54  94 NE18      29.83R
$$

OKZ018>020-024>031-272100-
CENTRAL OKLAHOMA

CITY           SKY/WX    TMP DP  RH WIND       PRES   REMARKS
OKLAHOMA CITY  TSTM      52  48  87 NE9G21    29.91R FOG
OKC/WILEY POST HVY RAIN  51  49  92 NE12G23   29.94R VSB 1
OKC/TINKER AFB HVY RAIN  50  48  93 NE10      29.90R FOG
STILLWATER     LGT RAIN  52  47  83 N7        29.95R
GUTHRIE        HVY RAIN  50  48  93 NE12G21   29.92S FOG
$$

OKZ008-013-054>072-272100-
NORTHEAST OKLAHOMA

CITY           SKY/WX    TMP DP  RH WIND       PRES   REMARKS
TULSA          CLOUDY    63  36  36 NE13      29.91R
TULSA/JONES    CLOUDY    62  38  40 NE9       29.92R
PONCA CITY     CLOUDY    60  42  51 NE14      29.95S
BARTLESVILLE   CLOUDY    64  38  38 NE18G30   29.96S
MUSKOGEE       CLOUDY    63  43  48 NE13      29.90F
$$

OKZ032-040>043-046>053-073>077-272100-
SOUTH CENTRAL/SOUTHEAST OKLAHOMA

CITY           SKY/WX    TMP DP  RH WIND       PRES   REMARKS
ARDMORE/DWNTWN CLOUDY    61  54  77 CALM      29.83S
MCALESTER      CLOUDY    65  49  56 E8G17     29.85R
$$




USA.gov is the U.S. government's official web portal to all federal, state and local government web resources and services.